Weather in Zaliznychne

Ukraine / Dnipropetrovsk Region     48°25′52″N   36°29′30″E
temp.,
°C
wind,
m/s
gust,
m/s
humid.,
%
clouds,
%
prec.,
mm/h
press.,
hPa
HPBL,
m
19 april, mon
mon1900:00+10s2266100 0.0 101639
03:00+9sw2269100 0.0 101634
06:00+8s2272100 0.0 101535
09:00+11ssw2261100 0.0 1015360
12:00+15sw1246100 0.1 10141693
15:00+15ssw224998 0.3 10141487
18:00+14w115197 0.1 10131089
21:00+12nnw2365100 0.4 101348
20 april, tue
tue2000:00+11ne336982 0.0 101152
03:00+10ne367082 0.0 1010156
06:00+10ene3876100 0.1 1007292
09:00+10ne4892100 2.5 1005415
12:00+10ne61194100 5.3 1001807
15:00+12ssw698896 10.2 999703
18:00+11sw3593100 1.9 997237
21:00+9wnw91490100 3.4 1001868
21 april, wed
wed2100:00+9w71190100 0.3 1006635
03:00+9wsw5991100 0.3 1009414
06:00+8sw5991100 0.2 1011410
09:00+8sw4787100 0.3 1013348
12:00+14wsw67515 0.1 10141819
15:00+16wsw784274 0.1 10142355
18:00+15wsw5750100 0.0 1015925
21:00+11wnw0168100 0.1 101710
22 april, thu
thu2200:00+11s2370100 0.0 101873
03:00+9ssw3475100 0.0 101977
06:00+9s2489100 0.6 1019125
09:00+12ssw4672100 0.8 1020543
12:00+15ssw5756100 1.3 10201615
15:00+16ssw555094 2.4 10191764
18:00+14sw466497 0.7 1020694
21:00+11ssw33765 0.9 102129
23 april, fri
fri2300:00+9ssw358373 0.0 102195
03:00+10ssw3885100 0.0 1021216
06:00+9ssw3787100 0.1 1021210
09:00+11ssw467499 0.1 1021309
12:00+17ssw67475 0.0 10201917
15:00+18sw674172 0.0 10182560
18:00+16sw475277 0.0 1018480
21:00+13ssw5116386 0.1 1018352